Location: ?????????
(41.2393°N, 22.9479°E)
Time: 23:42:44
(UTC+00:00)

Cosmos 468 Rocket - Pass Details

Date: 17 November 2025
Orbit: 740 x 774 km, 74.0° (Epoch: 09 December)

Event Time Altitude Azimuth Distance (km) Brightness Sun altitude
Rises 16:42:12 0° 341° (NNW) 3,228 7.4 -17.8°
Reaches altitude 10° 16:44:35 10° 342° (NNW) 2,294 6.6 -18.2°
Maximum altitude 16:49:48 82° 71° (ENE) 765 3.8 -19.2°
Drops below altitude 10° 16:54:55 10° 159° (SSE) 2,256 6.3 -20.2°
Sets 16:57:15 0° 160° (SSE) 3,172 7.1 -20.6°
